STARLINK-4043, 52836

Orbit data source: Space-Track

STARLINK-4043, 52836 is a payload satellite owned by SpaceX/Seattle (US) in LEO that was launched on Fri, 17 Jun 2022 UTC via an FALCON 9 launch vehicle from the Air Force Eastern Test Range (AFETR). Payload-class satellites include a variety of spacecraft equipped with specific instruments for various scientific and technological missions. These include communications satellites like Starlink; space stations such as the ISS; scientific satellites like the Hubble; Earth observation satellites from companies like Planet Labs, Umbra, and HawkEye 360; GPS; miniature CubeSats for education and research; and military/defense satellites.

Loading next visibility...
Identifier
52836, 2022-062G
Orbit
LEO
Country
Flag of USUS
Related business
Manufacturer
SpaceX/Seattle
Mission
Operational Commercial Communications
Bus & Motor
STARLINK, Unknown motor
Mass
297 kg wet, ~275 kg dry
Launch date (UTC)
2022-06-17 (3 years ago)
Launch vehicle
FALCON 9
Launch site
Air Force Eastern Test Range (AFETR)
Object type
Payload
Rocket body
Debris
Shape & HBR
Box + 1 Pan, 10.1 m
Radar Cross Section
13.562 m², Large (>1 m²)

Expand to show TLE details & history
Last TLE update: 17 hours ago

TLE from 17 hours ago
0 STARLINK-4043
1 52836U 22062G   25349.59309660  .00001508  00000-0  11278-3 0  9993
2 52836  53.2189  51.9621 0001536  83.0143 277.1024 15.08849284193085
Epoch: 2025-12-15T14:14Z
TLE epoch observation values (Epoch: 2025-12-15T14:14:03.546Z)
Latitude
Longitude
113.95789°
Altitude
540.481 km
Speed
7.593 km/s
True Right ascension
03h 27m 50s
True Declination
0° 00' 00"
Sunlit
Object was in full shadow at epoch
Visualization orbit readout
Latitude
Unknown
Longitude
Unknown
Altitude
Unknown
Speed
Unknown
Apparent Right ascension
Unknown
Apparent Declination
Unknown
Sunlit
N/A
Visualization observer readout
Local Sidereal Time
06:17:59
Azimuth
Unknown
Elevation
Unknown
Doppler factor
Unknown
Orbital elements
Apogee altitude
541.022 km
Perigee altitude
538.897 km
Semi-major axis
6,918.097 km
Eccentricity
0.00015
Inclination
53.2189°
RAAN
51.9621°
Arg. of periapsis
83.0143°
True anomaly
277.08493°
Mean anomaly
277.1024°
Eccentric anomaly
277.09367°
Mean motion
3.77193 °/min
Orbital period
95.44 mins
BSTAR
0.00011278
Loading maneuver chart data...
Computing Atmospheric mass density...
Loading historical data...
Loading historical data...
Loading historical data...
Loading historical data...
Loading historical data...
Loading historical data...
Loading historical data...

Documentation

Showing up to 5 results
|